Weather in Verkhneusinskoye

Russia / Krasnoyarsk Krai     52°14′21″N   93°01′29″E
temp.,
°C
wind,
m/s
gust,
m/s
humid.,
%
clouds,
%
prec.,
mm/h
press.,
hPa
HPBL,
m
13 may, thu
thu1301:00+4nw226917 0.0 101330
04:00+3wnw127449 0.0 101429
07:00+7w12585 0.0 1013204
10:00+13nnw352238 0.0 10112025
13:00+15n441730 0.0 10102452
16:00+15n441829 0.0 10102486
19:00+12nne2429100 0.0 1011726
22:00+5n115199 0.0 101519
14 may, fri
fri1401:00+3n0157100 0.0 101611
04:00+2nnw0162100 0.0 101710
07:00+5e0053100 0.0 1017151
10:00+12se013291 0.0 1014715
13:00+17sse1319100 0.0 10122455
16:00+18n022097 0.0 10093065
19:00+11n3658100 0.4 1015629
22:00+6nnw238969 0.8 101996
15 may, sat
sat1501:00+5nw239019 2.3 1022148
04:00+3w1193100 0.0 102415
07:00+5sw1184100 0.0 1025264
10:00+9sw1263100 0.0 1024995
13:00+14sw143884 0.0 10221753
16:00+17nnw243268 0.0 10192180
19:00+14n244372 0.0 1020517
22:00+8wnw116755 0.0 102216
16 may, sun
sun1601:00+6wsw117670 0.0 102210
04:00+5wsw118197 0.0 102210
07:00+9sw116454 0.0 1021188
10:00+17nw023811 0.0 1017842
13:00+22w152681 0.0 10132816
16:00+21nw472838 0.0 10122570
19:00+19nw37374 0.0 10121663
22:00+11wnw116341 0.0 101321
17 may, mon
mon1701:00+9wsw1171100 0.0 101417
04:00+10ssw1172100 0.1 101442
07:00+11sw1272100 0.1 101397
10:00+14wsw135770 0.1 1013520
13:00+20wnw473249 0.2 10102510
16:00+20nw583697 0.0 10092235
19:00+18wnw384429 0.0 10081693
22:00+11wsw2367100 0.0 101080